• Join FlightAware (Why Join?)
  • Login
  • US Flag 
08:09AM EDT


 

Airport Tracker/Info


-or-


 

Live Flight TrackerFlight Track Log ✈ KAP46 ✈ 17-Aug-2013 ✈ KMSS - KALB

Flight Track Log - Related Links

Times and Time Zones

All times are in EDT time to prevent confusion due to time zone crossing. See the KAP46 flight status page for this flight to view local times or setup timezone preferences in your user account.

Time Position Orientation Groundspeed Altitude Reporting Facility
EDT Latitude Longitude Course Direction KTS MPH feet Rate Location/Type
07:33AM 44.6900 -74.6592 167° South 150 173 5,900  Level Boston Center
07:34AM 44.6531 -74.6344 155° Southeast 150 173 6,400 540 Climbing Boston Center
07:35AM 44.6181 -74.6158 159° South 150 173 7,000 300 Climbing Boston Center
07:36AM 44.5767 -74.5939 159° South 150 173 7,100  Climbing Boston Center
07:37AM 44.5292 -74.5775 166° South 155 178 7,000 -60 Descending Boston Center
07:38AM 44.8165 -74.7762 158° South  Level FlightAware Approximate
07:38AM 44.4836 -74.5583 163° South 166 191 7,000  Level Boston Center
07:39AM 44.7867 -74.7622 167° South  Level FlightAware Approximate
07:39AM 44.4400 -74.5481 170° South 166 191 6,900  Level Boston Center
07:40AM 44.3944 -74.5292 163° South 166 191 7,000  Climbing Boston Center
07:41AM 44.3489 -74.5100 163° South 161 185 6,900  Descending Boston Center
07:42AM 44.3075 -74.4942 165° South 161 185 7,000  Climbing Boston Center
07:43AM 44.2664 -74.4722 159° South 161 185 7,000  Level Boston Center
07:44AM 44.2250 -74.4506 159° South 168 193 7,100  Climbing Boston Center
07:45AM 44.1794 -74.4289 161° South 168 193 7,100  Level Boston Center
07:46AM 44.1361 -74.4072 160° South 163 188 7,100  Level Boston Center
07:47AM 44.0928 -74.3883 163° South 163 188 7,100 -60 Level Boston Center
07:48AM 44.0492 -74.3725 165° South 168 193 7,000  Descending Boston Center
07:49AM 44.0017 -74.3536 164° South 163 188 7,100  Climbing Boston Center
07:50AM 43.9581 -74.3378 165° South 163 188 7,000  Descending Boston Center
07:51AM 43.9147 -74.3133 158° South 163 188 7,100  Climbing Boston Center
07:52AM 43.8714 -74.2919 160° South 163 188 7,100  Level Boston Center
07:53AM 43.8258 -74.2761 166° South 163 188 7,100  Level Boston Center
07:54AM 43.7803 -74.2575 164° South 163 188 7,100  Level Boston Center
07:55AM 43.7389 -74.2361 160° South 163 188 7,100  Level Boston Center
07:56AM 43.6933 -74.2147 161° South 163 188 7,100  Level Boston Center
07:57AM 43.6500 -74.1933 160° South 163 188 7,100  Level Boston Center
07:58AM 43.6044 -74.1719 161° South 163 188 7,100  Level Boston Center
07:59AM 43.5608 -74.1592 168° South 163 188 7,200  Climbing Boston Center
08:00AM 43.5153 -74.1378 161° South 163 188 7,100 -120 Descending Boston Center
08:01AM 43.4800 -74.1283 169° South 172 198 7,000 -120 Descending Boston Center
08:02AM 43.4489 -74.1158 164° South 171 197 7,000 60 Level Boston Center
08:02AM 43.4242 -74.1011 157° South 163 188 7,100  Climbing Boston Center
08:03AM 43.3806 -74.0825 163° South 168 193 7,000 -60 Descending Boston Center
08:04AM 43.3414 -74.0617 159° South 168 193 7,000 60 Level Boston Center
08:05AM 43.3164 -74.0525 165° South 170 196 7,100  Climbing Boston Center
08:05AM 43.2917 -74.0347 152° Southeast 168 193 7,000 -240 Descending Boston Center
08:06AM 43.2750 -74.0256 158° South 171 197 6,900 -300 Descending Boston Center
08:06AM 43.2503 -74.0136 161° South 168 193 6,700 -300 Descending Boston Center
08:07AM 43.2233 -74.0014 162° South 181 208 6,600 -420 Descending Boston Center
08:07AM 43.1986 -73.9894 161° South 173 199 6,300 -360 Descending Boston Center
08:08AM 43.1672 -73.9831 172° South 185 213 6,200 -120 Descending Boston Center
08:09AM 43.1217 -73.9706 169° South 182 209 6,200 -180 Level Boston Center
08:09AM 43.1008 -73.9586 157° South 181 208 6,000 -420 Descending Boston Center
08:10AM 43.0761 -73.9494 165° South 181 208 5,800 -480 Descending Boston Center
08:11AM 43.0242 -73.9283 163° South 189 217 5,300 -600 Descending Boston Center
08:12AM 42.9722 -73.9242 177° South 193 222 4,600 -540 Descending Boston Center
08:13AM 42.9244 -73.9203 177° South 189 217 4,300 -300 Descending Boston Center
08:13AM 42.8953 -73.9139 171° South 186 214 4,200 -180 Descending Boston Center
08:14AM 42.8681 -73.9131 179° South 173 199 4,100 -360 Descending Boston Center
08:15AM 42.8225 -73.9008 169° South 168 193 3,700 -480 Descending Boston Center
08:16AM 42.7769 -73.8769 159° South 182 209 3,200 -600 Descending Boston Center
08:17AM 42.7311 -73.8619 166° South 181 208 2,600 -660 Descending Boston Center
08:18AM 42.6919 -73.8356 154° Southeast 168 193 1,900 -840 Descending Boston Center
08:19AM 42.7111 -73.8078 47° Northeast 120 138 1,000 -900 Descending Boston Center
08:21AM 42.7333 -73.8000 170° South  Level FlightAware Approximate
08:28AM 42.7491 -73.8020 170° South  Level Estimated
08:29AM 42.7491 -73.8020 170° South  Level Estimated
08:30AM 42.7491 -73.8020 170° South  Level Estimated